,,,PA_Meas_PMT16A,,PR_Meas_QMR101_102,,RH_Meas_QMH101,,SR_Meas_QMS101,,TA_Meas_QMH101,,GenWind,,GenWind,
date,time,status,PA,status,PR,status,RH,status,SR,status,TA,status,DirAvg,status,SpdAvg,
2011-12-31, 00:00:04,VALID,1002.53,VALID,0,VALID,93.3484,VALID,0,VALID,23.7012,VALID,16,VALID,0.498828,
2011-12-31, 00:01:04,VALID,1002.51,VALID,0,VALID,93.3026,VALID,0,VALID,23.7012,VALID,27,VALID,0.975781,
2011-12-31, 00:02:04,VALID,1002.6,VALID,0,VALID,93.2645,VALID,0,VALID,23.7012,VALID,34,VALID,0.851563,
2011-12-31, 00:03:04,VALID,1002.57,VALID,0,VALID,93.234,VALID,0,VALID,23.7012,VALID,22,VALID,0.867969,
2011-12-31, 00:04:04,VALID,1002.54,VALID,0,VALID,93.1882,VALID,0,VALID,23.7207,VALID,11,VALID,0.990625,
2011-12-31, 00:05:04,VALID,1002.54,VALID,0,VALID,93.1653,VALID,0,VALID,23.7207,VALID,42,VALID,0.879687,
2011-12-31, 00:06:04,VALID,1002.54,VALID,0,VALID,93.2187,VALID,0,VALID,23.7207,VALID,67,VALID,0.783984,
2011-12-31, 00:07:04,VALID,1002.53,VALID,0,VALID,93.2797,VALID,0,VALID,23.7207,VALID,67,VALID,0.488672,
2011-12-31, 00:08:04,VALID,1002.58,VALID,0,VALID,93.3179,VALID,0,VALID,23.7207,VALID,67,VALID,0.382031,
2011-12-31, 00:09:04,VALID,1002.53,VALID,0,VALID,93.3713,VALID,0,VALID,23.7207,VALID,67,VALID,0.517578,
2011-12-31, 00:10:04,VALID,1002.52,VALID,0,VALID,93.4171,VALID,0,VALID,23.7207,VALID,67,VALID,0.389844,
2011-12-31, 00:11:04,VALID,1002.51,VALID,0,VALID,93.4705,VALID,0,VALID,23.6994,VALID,67,VALID,0.5625,
2011-12-31, 00:12:04,VALID,1002.47,VALID,0,VALID,93.5086,VALID,0,VALID,23.6994,VALID,67,VALID,0.709766,
2011-12-31, 00:13:04,VALID,1002.49,VALID,0,VALID,93.5315,VALID,0,VALID,23.7207,VALID,67,VALID,0.547656,
2011-12-31, 00:14:04,VALID,1002.46,VALID,0,VALID,93.562,VALID,0,VALID,23.7207,VALID,72,VALID,0.850781,
2011-12-31, 00:15:04,VALID,1002.45,VALID,0,VALID,93.6002,VALID,0,VALID,23.7207,VALID,73,VALID,0.466797,
2011-12-31, 00:16:04,VALID,1002.47,VALID,0,VALID,93.6078,VALID,0,VALID,23.7207,VALID,73,VALID,0.15,
2011-12-31, 00:17:04,VALID,1002.39,VALID,0,VALID,93.6154,VALID,0,VALID,23.7402,VALID,73,VALID,0.474609,
2011-12-31, 00:18:04,VALID,1002.38,VALID,0,VALID,93.6231,VALID,0,VALID,23.7207,VALID,73,VALID,0.726172,
2011-12-31, 00:19:04,VALID,1002.34,VALID,0,VALID,93.6154,VALID,0,VALID,23.7402,VALID,74,VALID,1.14688,
2011-12-31, 00:20:04,VALID,1002.34,VALID,0,VALID,93.6231,VALID,0.104696,VALID,23.7189,VALID,83,VALID,1.03281,
2011-12-31, 00:21:04,VALID,1002.31,VALID,0,VALID,93.6002,VALID,0,VALID,23.7402,VALID,89,VALID,0.929297,
2011-12-31, 00:22:04,VALID,1002.35,VALID,0,VALID,93.6154,VALID,0,VALID,23.7189,VALID,89,VALID,0.540625,
2011-12-31, 00:23:04,VALID,1002.32,VALID,0,VALID,93.6078,VALID,0.104696,VALID,23.7189,VALID,89,VALID,0.675781,
2011-12-31, 00:24:04,VALID,1002.35,VALID,0,VALID,93.6154,VALID,0,VALID,23.7402,VALID,89,VALID,0.476953,
2011-12-31, 00:25:04,VALID,1002.35,VALID,0,VALID,93.6383,VALID,0,VALID,23.7207,VALID,89,VALID,0.520703,
2011-12-31, 00:26:04,VALID,1002.38,VALID,0,VALID,93.6154,VALID,0,VALID,23.7207,VALID,137,VALID,0.754297,
2011-12-31, 00:27:04,VALID,1002.35,VALID,0,VALID,93.6154,VALID,0,VALID,23.7207,VALID,144,VALID,0.666797,
2011-12-31, 00:28:04,VALID,1002.35,VALID,0,VALID,93.6231,VALID,0,VALID,23.7207,VALID,130,VALID,0.730469,
2011-12-31, 00:29:04,VALID,1002.38,VALID,0,VALID,93.6154,VALID,0,VALID,23.6994,VALID,130,VALID,0.352734,
2011-12-31, 00:30:04,VALID,1002.35,VALID,0,VALID,93.6231,VALID,0,VALID,23.7207,VALID,62,VALID,0.574609,
2011-12-31, 00:31:04,VALID,1002.34,VALID,0,VALID,93.5773,VALID,0.104696,VALID,23.7207,VALID,85,VALID,1.01133,
2011-12-31, 00:32:04,VALID,1002.37,VALID,0,VALID,93.5163,VALID,0.104696,VALID,23.7384,VALID,68,VALID,0.418359,
2011-12-31, 00:33:04,VALID,1002.34,VALID,0,VALID,93.4018,VALID,0,VALID,23.7579,VALID,68,VALID,0.653516,
2011-12-31, 00:34:04,VALID,1002.34,VALID,0,VALID,93.3026,VALID,0,VALID,23.7579,VALID,51,VALID,0.870703,
2011-12-31, 00:35:04,VALID,1002.36,VALID,0,VALID,93.1577,VALID,0,VALID,23.8183,VALID,331,VALID,0.3875,
2011-12-31, 00:36:04,VALID,1002.37,VALID,0,VALID,93.0737,VALID,0,VALID,23.8165,VALID,331,VALID,0.400781,
2011-12-31, 00:37:04,VALID,1002.34,VALID,0,VALID,92.9822,VALID,0.104696,VALID,23.836,VALID,331,VALID,0.423828,
2011-12-31, 00:38:04,VALID,1002.37,VALID,0,VALID,92.944,VALID,0,VALID,23.836,VALID,331,VALID,0.160938,
2011-12-31, 00:39:04,VALID,1002.36,VALID,0,VALID,92.7991,VALID,0,VALID,23.8555,VALID,303,VALID,1.23945,
2011-12-31, 00:40:04,VALID,1002.36,VALID,0,VALID,92.5549,VALID,0.104696,VALID,23.9336,VALID,294,VALID,0.99375,
2011-12-31, 00:41:04,VALID,1002.31,VALID,0,VALID,92.3794,VALID,0,VALID,23.9531,VALID,271,VALID,0.494141,
2011-12-31, 00:42:04,VALID,1002.33,VALID,0,VALID,92.3031,VALID,0,VALID,23.9531,VALID,332,VALID,0.808203,
2011-12-31, 00:43:04,VALID,1002.33,VALID,0,VALID,92.2497,VALID,0.104696,VALID,23.9531,VALID,310,VALID,0.861328,
2011-12-31, 00:44:04,VALID,1002.33,VALID,0,VALID,92.0971,VALID,0.104696,VALID,23.9726,VALID,300,VALID,0.673828,
2011-12-31, 00:45:04,VALID,1002.32,VALID,0,VALID,91.9674,VALID,0,VALID,24.0116,VALID,306,VALID,0.873438,
2011-12-31, 00:46:04,VALID,1002.33,VALID,0.5,VALID,91.853,VALID,0.104696,VALID,24.0116,VALID,314,VALID,0.373047,
2011-12-31, 00:47:04,VALID,1002.32,VALID,0,VALID,91.8225,VALID,0,VALID,24.0116,VALID,300,VALID,0.315625,
2011-12-31, 00:48:04,VALID,1002.3,VALID,0,VALID,91.792,VALID,0,VALID,24.0116,VALID,308,VALID,1.22539,
2011-12-31, 00:49:04,VALID,1002.3,VALID,0,VALID,91.7614,VALID,0.104696,VALID,24.0525,VALID,265,VALID,1.52773,
2011-12-31, 00:50:04,VALID,1002.32,VALID,0,VALID,91.6241,VALID,0,VALID,24.0915,VALID,243,VALID,1.25977,
2011-12-31, 00:51:04,VALID,1002.35,VALID,0,VALID,91.5326,VALID,0,VALID,24.0897,VALID,247,VALID,1.69531,
2011-12-31, 00:52:04,VALID,1002.33,VALID,0,VALID,91.3723,VALID,0,VALID,24.15,VALID,272,VALID,2.29414,
2011-12-31, 00:53:04,VALID,1002.33,VALID,0,VALID,91.174,VALID,0,VALID,24.1696,VALID,238,VALID,2.37422,
2011-12-31, 00:54:04,VALID,1002.3,VALID,0,VALID,91.0443,VALID,0.104696,VALID,24.1872,VALID,228,VALID,2.51016,
2011-12-31, 00:55:04,VALID,1002.2,VALID,0,VALID,91.1053,VALID,0,VALID,24.1696,VALID,327,VALID,3.34375,
2011-12-31, 00:56:04,VALID,1002.24,VALID,0,VALID,91.2045,VALID,0.104696,VALID,24.1287,VALID,266,VALID,3.82813,
2011-12-31, 00:57:04,VALID,1002.29,VALID,0,VALID,91.3266,VALID,0,VALID,24.1092,VALID,274,VALID,2.31289,
2011-12-31, 00:58:04,VALID,1002.2,VALID,0,VALID,91.4715,VALID,0.104696,VALID,24.0897,VALID,266,VALID,1.34063,
2011-12-31, 00:59:04,VALID,1002.15,VALID,0,VALID,91.6165,VALID,0,VALID,24.072,VALID,303,VALID,2.72266,
2011-12-31, 01:00:04,VALID,1002.15,VALID,0,VALID,91.7767,VALID,0,VALID,24.072,VALID,270,VALID,0.496094,
2011-12-31, 01:01:04,VALID,1002.12,VALID,0,VALID,91.9598,VALID,0,VALID,24.0116,VALID,217,VALID,1.52656,
2011-12-31, 01:02:04,VALID,1002.08,VALID,0,VALID,92.0895,VALID,0,VALID,24.0116,VALID,295,VALID,2.55508,
2011-12-31, 01:03:04,VALID,1002.05,VALID,0,VALID,92.2116,VALID,0,VALID,24.0329,VALID,249,VALID,2.53672,
2011-12-31, 01:04:04,VALID,1001.99,VALID,0,VALID,92.326,VALID,0,VALID,24.0116,VALID,209,VALID,1.29336,
2011-12-31, 01:05:04,VALID,1002.03,VALID,0,VALID,92.4176,VALID,0,VALID,24.0329,VALID,230,VALID,3.08242,
2011-12-31, 01:06:04,VALID,1001.99,VALID,0.5,VALID,92.5244,VALID,0,VALID,24.0116,VALID,267,VALID,1.98594,
2011-12-31, 01:07:04,VALID,1001.99,VALID,0,VALID,92.6007,VALID,0,VALID,24.0116,VALID,274,VALID,2.19766,
2011-12-31, 01:08:04,VALID,1001.97,VALID,0,VALID,92.6388,VALID,0,VALID,24.0116,VALID,263,VALID,2.12852,
2011-12-31, 01:09:04,VALID,1001.95,VALID,0,VALID,92.677,VALID,0,VALID,24.0116,VALID,265,VALID,3.44219,
2011-12-31, 01:10:04,VALID,1001.93,VALID,0,VALID,92.677,VALID,0,VALID,24.0329,VALID,270,VALID,2.41289,
2011-12-31, 01:11:04,VALID,1001.87,VALID,0,VALID,92.6388,VALID,0,VALID,24.0116,VALID,280,VALID,2.59414,
2011-12-31, 01:12:04,VALID,1001.91,VALID,0,VALID,92.6312,VALID,0,VALID,24.0329,VALID,225,VALID,1.0293,
2011-12-31, 01:13:04,VALID,1001.92,VALID,0,VALID,92.6541,VALID,0,VALID,24.0134,VALID,252,VALID,1.03711,
2011-12-31, 01:14:04,VALID,1001.87,VALID,0,VALID,92.6541,VALID,0,VALID,24.0134,VALID,280,VALID,2.19062,
2011-12-31, 01:15:04,VALID,1001.87,VALID,0,VALID,92.6083,VALID,0,VALID,24.0116,VALID,228,VALID,2.84531,
2011-12-31, 01:16:04,VALID,1001.88,VALID,0,VALID,92.532,VALID,0,VALID,24.0134,VALID,241,VALID,2.51367,
2011-12-31, 01:17:04,VALID,1001.81,VALID,0.5,VALID,92.3718,VALID,0,VALID,23.9939,VALID,246,VALID,3.42578,
2011-12-31, 01:18:04,VALID,1001.82,VALID,0,VALID,92.2879,VALID,0,VALID,23.9726,VALID,302,VALID,1.83984,
2011-12-31, 01:19:04,VALID,1001.84,VALID,0,VALID,92.2345,VALID,0,VALID,23.9744,VALID,240,VALID,3.13672,
2011-12-31, 01:20:04,VALID,1001.83,VALID,0,VALID,92.1353,VALID,0,VALID,23.9531,VALID,243,VALID,2.19023,
2011-12-31, 01:21:04,VALID,1001.83,VALID,0,VALID,92.1277,VALID,0,VALID,23.9549,VALID,257,VALID,1.49375,
2011-12-31, 01:22:04,VALID,1001.86,VALID,0,VALID,92.1506,VALID,0,VALID,23.9336,VALID,272,VALID,1.28086,
2011-12-31, 01:23:04,VALID,1001.83,VALID,0,VALID,92.2345,VALID,0,VALID,23.9354,VALID,244,VALID,2.12227,
2011-12-31, 01:24:04,VALID,1001.84,VALID,0,VALID,92.3184,VALID,0,VALID,23.9354,VALID,305,VALID,1.0625,
2011-12-31, 01:25:04,VALID,1001.8,VALID,0,VALID,92.3489,VALID,0,VALID,23.8945,VALID,253,VALID,1.95273,
2011-12-31, 01:26:04,VALID,1001.85,VALID,0,VALID,92.3642,VALID,0,VALID,23.8945,VALID,281,VALID,1.20352,
2011-12-31, 01:27:04,VALID,1001.81,VALID,0,VALID,92.3413,VALID,0,VALID,23.9159,VALID,266,VALID,3.16172,
2011-12-31, 01:28:04,VALID,1001.82,VALID,0,VALID,92.3413,VALID,0,VALID,23.8945,VALID,275,VALID,2.19336,
2011-12-31, 01:29:04,VALID,1001.83,VALID,0,VALID,92.3642,VALID,0,VALID,23.875,VALID,269,VALID,1.59023,
2011-12-31, 01:30:04,VALID,1001.79,VALID,0,VALID,92.3794,VALID,0,VALID,23.8768,VALID,237,VALID,2.04453,
2011-12-31, 01:31:04,VALID,1001.72,VALID,0,VALID,92.204,VALID,0,VALID,23.8573,VALID,297,VALID,4.47891,
2011-12-31, 01:32:04,VALID,1001.73,VALID,0,VALID,91.8835,VALID,0,VALID,23.797,VALID,276,VALID,2.00078,
2011-12-31, 01:33:04,VALID,1001.75,VALID,0,VALID,91.7538,VALID,0,VALID,23.7988,VALID,255,VALID,2.37812,
2011-12-31, 01:34:04,VALID,1001.72,VALID,0,VALID,91.7462,VALID,0,VALID,23.7988,VALID,241,VALID,1.6043,
2011-12-31, 01:35:04,VALID,1001.64,VALID,0,VALID,91.6775,VALID,0,VALID,23.7579,VALID,260,VALID,3.95313,
2011-12-31, 01:36:04,VALID,1001.65,VALID,0,VALID,91.6317,VALID,0,VALID,23.7793,VALID,231,VALID,1.54648,
2011-12-31, 01:37:04,VALID,1001.62,VALID,0,VALID,91.7004,VALID,0,VALID,23.7189,VALID,253,VALID,0.830859,
2011-12-31, 01:38:04,VALID,1001.55,VALID,0,VALID,91.7767,VALID,0,VALID,23.7402,VALID,236,VALID,3.95313,
2011-12-31, 01:39:04,VALID,1001.57,VALID,0,VALID,91.8377,VALID,0,VALID,23.6994,VALID,258,VALID,1.78711,
2011-12-31, 01:40:04,VALID,1001.56,VALID,0,VALID,91.914,VALID,0,VALID,23.7207,VALID,271,VALID,2.08437,
2011-12-31, 01:41:04,VALID,1001.54,VALID,0,VALID,92.0361,VALID,0,VALID,23.6994,VALID,239,VALID,2.55898,
2011-12-31, 01:42:04,VALID,1001.51,VALID,0,VALID,92.1124,VALID,0,VALID,23.6817,VALID,240,VALID,1.06094,
2011-12-31, 01:43:04,VALID,1001.51,VALID,0,VALID,92.1734,VALID,0,VALID,23.6604,VALID,236,VALID,3.25117,
2011-12-31, 01:44:04,VALID,1001.48,VALID,0,VALID,92.2116,VALID,0,VALID,23.7012,VALID,246,VALID,2.6418,
2011-12-31, 01:45:04,VALID,1001.42,VALID,0,VALID,92.204,VALID,0,VALID,23.7012,VALID,241,VALID,2.02187,
2011-12-31, 01:46:04,VALID,1001.45,VALID,0,VALID,92.1582,VALID,0,VALID,23.6799,VALID,278,VALID,2.97578,
2011-12-31, 01:47:04,VALID,1001.39,VALID,0,VALID,92.0743,VALID,0,VALID,23.7402,VALID,237,VALID,3.45664,
2011-12-31, 01:48:04,VALID,1001.39,VALID,0,VALID,91.9751,VALID,0,VALID,23.7402,VALID,277,VALID,1.76563,
2011-12-31, 01:49:04,VALID,1001.34,VALID,0,VALID,91.8835,VALID,0,VALID,23.7402,VALID,301,VALID,3.53359,
2011-12-31, 01:50:04,VALID,1001.38,VALID,0,VALID,91.8454,VALID,0,VALID,23.7402,VALID,249,VALID,2.4332,
2011-12-31, 01:51:04,VALID,1001.43,VALID,0,VALID,91.8301,VALID,0,VALID,23.7597,VALID,224,VALID,2.03437,
2011-12-31, 01:52:04,VALID,1001.38,VALID,0,VALID,91.8683,VALID,0,VALID,23.7384,VALID,237,VALID,1.45625,
2011-12-31, 01:53:04,VALID,1001.34,VALID,0,VALID,91.9751,VALID,0,VALID,23.7384,VALID,213,VALID,1.48164,
2011-12-31, 01:54:04,VALID,1001.33,VALID,0,VALID,92.1353,VALID,0,VALID,23.7384,VALID,217,VALID,2.66719,
2011-12-31, 01:55:04,VALID,1001.34,VALID,0,VALID,92.2726,VALID,0,VALID,23.7579,VALID,228,VALID,1.41641,
2011-12-31, 01:56:04,VALID,1001.37,VALID,0,VALID,92.3947,VALID,0,VALID,23.7793,VALID,217,VALID,1.79492,
2011-12-31, 01:57:04,VALID,1001.37,VALID,0,VALID,92.4634,VALID,0,VALID,23.7793,VALID,220,VALID,1.40469,
2011-12-31, 01:58:04,VALID,1001.35,VALID,0,VALID,92.5778,VALID,0,VALID,23.7597,VALID,258,VALID,2.30703,
2011-12-31, 01:59:04,VALID,1001.33,VALID,0,VALID,92.5931,VALID,0,VALID,23.7793,VALID,267,VALID,1.98398,
2011-12-31, 02:00:04,VALID,1001.32,VALID,0,VALID,92.6312,VALID,0,VALID,23.7775,VALID,244,VALID,2.92852,
2011-12-31, 02:01:04,VALID,1001.29,VALID,0,VALID,92.6465,VALID,0,VALID,23.7775,VALID,237,VALID,1.1457,
2011-12-31, 02:02:04,VALID,1001.29,VALID,0,VALID,92.6465,VALID,0,VALID,23.797,VALID,220,VALID,2.5793,
2011-12-31, 02:03:04,VALID,1001.31,VALID,0,VALID,92.6465,VALID,0,VALID,23.7775,VALID,218,VALID,1.27891,
2011-12-31, 02:04:04,VALID,1001.34,VALID,0,VALID,92.6999,VALID,0,VALID,23.8183,VALID,234,VALID,1.27695,
2011-12-31, 02:05:04,VALID,1001.28,VALID,0,VALID,92.738,VALID,0,VALID,23.7988,VALID,220,VALID,1.91641,
2011-12-31, 02:06:04,VALID,1001.25,VALID,0,VALID,92.7457,VALID,0,VALID,23.7988,VALID,224,VALID,2.15391,
2011-12-31, 02:07:04,VALID,1001.27,VALID,0,VALID,92.7457,VALID,0,VALID,23.7579,VALID,260,VALID,1.63984,
2011-12-31, 02:08:04,VALID,1001.28,VALID,0,VALID,92.7685,VALID,0,VALID,23.7793,VALID,260,VALID,1.6582,
2011-12-31, 02:09:04,VALID,1001.26,VALID,0,VALID,92.7914,VALID,0,VALID,23.7597,VALID,248,VALID,0.823828,
2011-12-31, 02:10:04,VALID,1001.26,VALID,0,VALID,92.8067,VALID,0,VALID,23.7579,VALID,205,VALID,1.16367,
2011-12-31, 02:11:04,VALID,1001.21,VALID,0,VALID,92.7685,VALID,0,VALID,23.7402,VALID,227,VALID,2.77422,
2011-12-31, 02:12:04,VALID,1001.24,VALID,0,VALID,92.6388,VALID,0,VALID,23.7189,VALID,250,VALID,2.15781,
2011-12-31, 02:13:04,VALID,1001.23,VALID,0,VALID,92.5397,VALID,0,VALID,23.7384,VALID,215,VALID,2.8418,
2011-12-31, 02:14:04,VALID,1001.23,VALID,0,VALID,92.4252,VALID,0,VALID,23.7597,VALID,249,VALID,2.08711,
2011-12-31, 02:15:04,VALID,1001.23,VALID,0,VALID,92.3871,VALID,0,VALID,23.7189,VALID,206,VALID,1.96445,
2011-12-31, 02:16:04,VALID,1001.22,VALID,0,VALID,92.3489,VALID,0,VALID,23.7189,VALID,209,VALID,2.52813,
2011-12-31, 02:17:04,VALID,1001.26,VALID,0,VALID,92.2803,VALID,0,VALID,23.6994,VALID,225,VALID,3.74609,
2011-12-31, 02:18:04,VALID,1001.27,VALID,0,VALID,92.2497,VALID,0,VALID,23.6994,VALID,237,VALID,1.50664,
2011-12-31, 02:19:04,VALID,1001.26,VALID,0,VALID,92.1963,VALID,0,VALID,23.6799,VALID,253,VALID,1.53398,
2011-12-31, 02:20:04,VALID,1001.23,VALID,0,VALID,92.204,VALID,0,VALID,23.6799,VALID,258,VALID,1.15234,
2011-12-31, 02:21:04,VALID,1001.19,VALID,0,VALID,92.2268,VALID,0,VALID,23.6604,VALID,218,VALID,0.707031,
2011-12-31, 02:22:04,VALID,1001.15,VALID,0,VALID,92.3031,VALID,0,VALID,23.6622,VALID,226,VALID,2.08828,
2011-12-31, 02:23:04,VALID,1001.17,VALID,0,VALID,92.1353,VALID,0,VALID,23.6817,VALID,233,VALID,2.99336,
2011-12-31, 02:24:04,VALID,1001.15,VALID,0,VALID,92.0361,VALID,0,VALID,23.7012,VALID,221,VALID,3.19062,
2011-12-31, 02:25:04,VALID,1001.15,VALID,0,VALID,91.9903,VALID,0,VALID,23.6817,VALID,223,VALID,1.53555,
2011-12-31, 02:26:04,VALID,1001.12,VALID,0.5,VALID,91.9445,VALID,0,VALID,23.6604,VALID,243,VALID,3.28984,
2011-12-31, 02:27:04,VALID,1001.16,VALID,0,VALID,91.853,VALID,0,VALID,23.6799,VALID,243,VALID,2.66719,
2011-12-31, 02:28:04,VALID,1001.2,VALID,0,VALID,91.8454,VALID,0,VALID,23.7012,VALID,253,VALID,1.01445,
2011-12-31, 02:29:04,VALID,1001.16,VALID,0,VALID,91.914,VALID,0,VALID,23.6604,VALID,234,VALID,1.19297,
2011-12-31, 02:30:04,VALID,1001.18,VALID,0,VALID,92.0132,VALID,0,VALID,23.6409,VALID,255,VALID,1.45742,
2011-12-31, 02:31:04,VALID,1001.17,VALID,0,VALID,92.0971,VALID,0,VALID,23.6214,VALID,257,VALID,1.38008,
2011-12-31, 02:32:04,VALID,1001.16,VALID,0,VALID,92.1811,VALID,0,VALID,23.6427,VALID,260,VALID,1.15742,
2011-12-31, 02:33:04,VALID,1001.17,VALID,0,VALID,92.265,VALID,0,VALID,23.6214,VALID,242,VALID,0.583594,
2011-12-31, 02:34:04,VALID,1001.12,VALID,0,VALID,92.3184,VALID,0,VALID,23.6019,VALID,242,VALID,2.44805,
2011-12-31, 02:35:04,VALID,1001.16,VALID,0.5,VALID,92.3794,VALID,0,VALID,23.6214,VALID,243,VALID,1.31406,
2011-12-31, 02:36:04,VALID,1001.15,VALID,0,VALID,92.4023,VALID,0,VALID,23.6214,VALID,249,VALID,2.56875,
2011-12-31, 02:37:04,VALID,1001.11,VALID,0,VALID,92.3947,VALID,0,VALID,23.6817,VALID,240,VALID,1.70508,
2011-12-31, 02:38:04,VALID,1001.1,VALID,0,VALID,92.3794,VALID,0,VALID,23.6799,VALID,253,VALID,1.86836,
2011-12-31, 02:39:04,VALID,1001.15,VALID,0,VALID,92.3642,VALID,0,VALID,23.7207,VALID,213,VALID,1.73125,
2011-12-31, 02:40:04,VALID,1001.17,VALID,0,VALID,92.3718,VALID,0,VALID,23.7207,VALID,228,VALID,1.56758,
2011-12-31, 02:41:04,VALID,1001.16,VALID,0,VALID,92.4176,VALID,0,VALID,23.7207,VALID,243,VALID,2.38984,
2011-12-31, 02:42:04,VALID,1001.14,VALID,0,VALID,92.4786,VALID,0,VALID,23.6994,VALID,232,VALID,1.33008,
2011-12-31, 02:43:04,VALID,1001.14,VALID,0,VALID,92.5091,VALID,0,VALID,23.6994,VALID,246,VALID,1.74883,
2011-12-31, 02:44:04,VALID,1001.12,VALID,0,VALID,92.5244,VALID,0,VALID,23.6994,VALID,260,VALID,1.15625,
2011-12-31, 02:45:04,VALID,1001.13,VALID,0,VALID,92.4481,VALID,0,VALID,23.6994,VALID,248,VALID,1.51406,
2011-12-31, 02:46:04,VALID,1001.11,VALID,0,VALID,92.2726,VALID,0,VALID,23.7189,VALID,249,VALID,3.31992,
2011-12-31, 02:47:04,VALID,1001.11,VALID,0.5,VALID,92.1353,VALID,0,VALID,23.7384,VALID,239,VALID,1.96523,
2011-12-31, 02:48:04,VALID,1001.04,VALID,0,VALID,92.0743,VALID,0,VALID,23.7189,VALID,218,VALID,2.25859,
2011-12-31, 02:49:04,VALID,1001.03,VALID,0,VALID,91.9293,VALID,0,VALID,23.7402,VALID,254,VALID,2.45898,
2011-12-31, 02:50:04,VALID,1001.06,VALID,0,VALID,91.8911,VALID,0,VALID,23.7189,VALID,217,VALID,1.86563,
2011-12-31, 02:51:04,VALID,1001.06,VALID,0,VALID,91.8301,VALID,0.104696,VALID,23.7384,VALID,244,VALID,2.35352,
2011-12-31, 02:52:04,VALID,1001.02,VALID,0,VALID,91.7385,VALID,0,VALID,23.7189,VALID,232,VALID,2.0832,
2011-12-31, 02:53:04,VALID,1000.98,VALID,0,VALID,91.5326,VALID,0,VALID,23.7189,VALID,228,VALID,2.04609,
2011-12-31, 02:54:04,VALID,1000.97,VALID,0,VALID,91.5173,VALID,0,VALID,23.7384,VALID,213,VALID,1.58047,
2011-12-31, 02:55:04,VALID,1000.95,VALID,0,VALID,91.4868,VALID,0,VALID,23.7189,VALID,252,VALID,1.16758,
2011-12-31, 02:56:04,VALID,1000.96,VALID,0,VALID,91.2655,VALID,0,VALID,23.6994,VALID,225,VALID,2.9793,
2011-12-31, 02:57:04,VALID,1000.99,VALID,0,VALID,91.1206,VALID,0,VALID,23.6994,VALID,231,VALID,3.35625,
2011-12-31, 02:58:04,VALID,1001,VALID,0,VALID,91.1282,VALID,0,VALID,23.7207,VALID,226,VALID,1.45781,
2011-12-31, 02:59:04,VALID,1000.92,VALID,0,VALID,91.2045,VALID,0,VALID,23.6799,VALID,294,VALID,1.8418,
2011-12-31, 03:00:04,VALID,1000.93,VALID,0,VALID,91.1587,VALID,0,VALID,23.6604,VALID,238,VALID,3.02305,
2011-12-31, 03:01:04,VALID,1000.94,VALID,0,VALID,91.2045,VALID,0,VALID,23.6409,VALID,224,VALID,2.16445,
2011-12-31, 03:02:04,VALID,1000.93,VALID,0,VALID,91.2503,VALID,0,VALID,23.6409,VALID,240,VALID,1.80781,
2011-12-31, 03:03:04,VALID,1000.88,VALID,0,VALID,91.1663,VALID,0.104696,VALID,23.6409,VALID,225,VALID,3.91328,
2011-12-31, 03:04:04,VALID,1000.92,VALID,0,VALID,91.2426,VALID,0,VALID,23.6409,VALID,235,VALID,1.7,
2011-12-31, 03:05:04,VALID,1000.89,VALID,0,VALID,91.2655,VALID,0,VALID,23.6622,VALID,231,VALID,3.23984,
2011-12-31, 03:06:04,VALID,1000.92,VALID,0,VALID,91.296,VALID,0,VALID,23.6622,VALID,268,VALID,1.99063,
2011-12-31, 03:07:04,VALID,1000.94,VALID,0,VALID,91.2808,VALID,0,VALID,23.6604,VALID,276,VALID,1.64648,
2011-12-31, 03:08:04,VALID,1000.96,VALID,0,VALID,91.3723,VALID,0,VALID,23.6409,VALID,232,VALID,1.45547,
2011-12-31, 03:09:04,VALID,1000.98,VALID,0.5,VALID,91.502,VALID,0,VALID,23.6214,VALID,269,VALID,1.19336,
2011-12-31, 03:10:04,VALID,1001,VALID,0,VALID,91.5554,VALID,0,VALID,23.6214,VALID,256,VALID,1.58594,
2011-12-31, 03:11:04,VALID,1000.99,VALID,0,VALID,91.6317,VALID,0,VALID,23.6214,VALID,263,VALID,0.877344,
2011-12-31, 03:12:04,VALID,1001.01,VALID,0,VALID,91.6851,VALID,0,VALID,23.6232,VALID,262,VALID,1.28203,
2011-12-31, 03:13:04,VALID,1001.01,VALID,0,VALID,91.7691,VALID,0,VALID,23.6019,VALID,224,VALID,0.900391,
2011-12-31, 03:14:05,VALID,1001.01,VALID,0,VALID,91.8835,VALID,0,VALID,23.5823,VALID,237,VALID,0.725391,
2011-12-31, 03:15:05,VALID,1000.99,VALID,0,VALID,91.9293,VALID,0.104696,VALID,23.5628,VALID,266,VALID,1.78828,
2011-12-31, 03:16:05,VALID,1001,VALID,0,VALID,91.9369,VALID,0,VALID,23.5841,VALID,190,VALID,1.59883,
2011-12-31, 03:17:05,VALID,1001,VALID,0,VALID,91.9445,VALID,0,VALID,23.5628,VALID,240,VALID,1.04062,
2011-12-31, 03:18:05,VALID,1001.08,VALID,0,VALID,91.9598,VALID,0,VALID,23.5646,VALID,228,VALID,2.35,
2011-12-31, 03:19:05,VALID,1001.05,VALID,0,VALID,91.7233,VALID,0,VALID,23.5841,VALID,247,VALID,2.55742,
2011-12-31, 03:20:05,VALID,1001.05,VALID,0,VALID,91.6699,VALID,0.104696,VALID,23.6019,VALID,245,VALID,1.65469,
2011-12-31, 03:21:05,VALID,1001.1,VALID,0,VALID,91.6012,VALID,0,VALID,23.6019,VALID,223,VALID,1.44844,
2011-12-31, 03:22:05,VALID,1001.06,VALID,0,VALID,91.5936,VALID,0,VALID,23.6036,VALID,248,VALID,0.467187,
2011-12-31, 03:23:05,VALID,1001.1,VALID,0,VALID,91.6928,VALID,0,VALID,23.5823,VALID,303,VALID,0.696875,
2011-12-31, 03:24:05,VALID,1001.07,VALID,0,VALID,91.7767,VALID,0,VALID,23.5628,VALID,251,VALID,0.9875,
2011-12-31, 03:25:05,VALID,1001.09,VALID,0,VALID,91.8301,VALID,0,VALID,23.5628,VALID,267,VALID,0.291797,
2011-12-31, 03:26:05,VALID,1001.14,VALID,0,VALID,91.8606,VALID,0,VALID,23.5433,VALID,264,VALID,1.66641,
2011-12-31, 03:27:05,VALID,1001.12,VALID,0,VALID,91.8759,VALID,0,VALID,23.5841,VALID,241,VALID,1.01445,
2011-12-31, 03:28:05,VALID,1001.12,VALID,0,VALID,91.914,VALID,0,VALID,23.5841,VALID,253,VALID,0.678125,
2011-12-31, 03:29:05,VALID,1001.07,VALID,0,VALID,91.9674,VALID,0,VALID,23.5841,VALID,261,VALID,1.20703,
2011-12-31, 03:30:05,VALID,1001.06,VALID,0,VALID,92.0056,VALID,0,VALID,23.5628,VALID,278,VALID,1.50781,
2011-12-31, 03:31:05,VALID,1001.05,VALID,0,VALID,91.998,VALID,0,VALID,23.5823,VALID,230,VALID,1.48477,
2011-12-31, 03:32:05,VALID,1001.02,VALID,0,VALID,91.9827,VALID,0,VALID,23.6019,VALID,228,VALID,1.13555,
2011-12-31, 03:33:05,VALID,1001.02,VALID,0,VALID,91.9751,VALID,0,VALID,23.6019,VALID,196,VALID,0.594531,
2011-12-31, 03:34:05,VALID,1000.96,VALID,0,VALID,91.998,VALID,0,VALID,23.6036,VALID,222,VALID,0.697266,
2011-12-31, 03:35:05,VALID,1000.99,VALID,0,VALID,91.9903,VALID,0,VALID,23.5823,VALID,198,VALID,1.29336,
2011-12-31, 03:36:05,VALID,1000.97,VALID,0,VALID,91.9751,VALID,0,VALID,23.6019,VALID,210,VALID,1.58984,
2011-12-31, 03:37:05,VALID,1000.99,VALID,0,VALID,91.9217,VALID,0,VALID,23.6214,VALID,210,VALID,1.55156,
2011-12-31, 03:38:05,VALID,1000.95,VALID,0,VALID,91.8683,VALID,0,VALID,23.6604,VALID,215,VALID,1.25781,
2011-12-31, 03:39:05,VALID,1000.94,VALID,0,VALID,91.7996,VALID,0,VALID,23.6604,VALID,208,VALID,1.02852,
2011-12-31, 03:40:05,VALID,1000.93,VALID,0,VALID,91.7462,VALID,0,VALID,23.6604,VALID,222,VALID,1.41445,
2011-12-31, 03:41:05,VALID,1000.96,VALID,0,VALID,91.586,VALID,0.104696,VALID,23.6799,VALID,214,VALID,1.41328,
2011-12-31, 03:42:05,VALID,1000.97,VALID,0,VALID,91.5097,VALID,0,VALID,23.7012,VALID,224,VALID,1.1082,
2011-12-31, 03:43:05,VALID,1000.91,VALID,0,VALID,91.4486,VALID,0,VALID,23.6799,VALID,215,VALID,1.31094,
2011-12-31, 03:44:05,VALID,1000.93,VALID,0,VALID,91.4563,VALID,0,VALID,23.6799,VALID,214,VALID,1.36484,